This is the latest recevied weather packets stored in our database for station/object KB2EAR-13. If no packets are shown the sender has not sent any weather packets the latest 10 day(s).
| Time | Temp. | Humidity | Pressure | Rain* | Wind** | Luminosity | Snow |
|---|---|---|---|---|---|---|---|
| 1788033317 | 25.56° C | 46% | 1023.6 hPa | 0 mm | - | - | - |
| 1788033017 | 25.56° C | 49% | 1023.8 hPa | 0 mm | - | - | - |
| 1788032717 | 25.56° C | 48% | 1023.8 hPa | 0 mm | - | - | - |
| 1788032417 | 25.56° C | 47% | 1023.9 hPa | 0 mm | - | - | - |
| 1788032117 | 25.56° C | 46% | 1023.9 hPa | 0 mm | - | - | - |
| 1788031822 | 25.56° C | 48% | 1023.7 hPa | 0 mm | - | - | - |
| 1788031517 | 25.56° C | 49% | 1023.8 hPa | 0 mm | - | - | - |
| 1788031217 | 25.56° C | 47% | 1024 hPa | 0 mm | - | - | - |
| 1788030917 | 25.56° C | 48% | 1023.9 hPa | 0 mm | - | - | - |
| 1788030617 | 25.56° C | 48% | 1023.8 hPa | 0 mm | - | - | - |
| 1788030317 | 25.56° C | 48% | 1023.9 hPa | 0 mm | - | - | - |
| 1788030017 | 25.56° C | 47% | 1024 hPa | 0 mm | - | - | - |
| 1788029717 | 25.56° C | 46% | 1023.9 hPa | 0 mm | - | - | - |
| 1788029417 | 25.56° C | 47% | 1023.9 hPa | 0 mm | - | - | - |
| 1788029117 | 25.56° C | 47% | 1024 hPa | 0 mm | - | - | - |
| 1788028817 | 25° C | 48% | 1024 hPa | 0 mm | - | - | - |
| 1788028517 | 25° C | 48% | 1024.1 hPa | 0 mm | - | - | - |
| 1788028217 | 25° C | 48% | 1024.1 hPa | 0 mm | - | - | - |
| 1788027928 | 25° C | 48% | 1024.3 hPa | 0 mm | - | - | - |
| 1788027617 | 25° C | 49% | 1024.5 hPa | 0 mm | - | - | - |
| 1788027328 | 25° C | 47% | 1024.5 hPa | 0 mm | - | - | - |
| 1788027017 | 25.56° C | 48% | 1024.5 hPa | 0 mm | - | - | - |
| 1788026717 | 25.56° C | 47% | 1024.6 hPa | 0 mm | - | - | - |
| 1788026417 | 25° C | 48% | 1024.5 hPa | 0 mm | - | - | - |
| 1788026117 | 24.44° C | 49% | 1024.6 hPa | 0 mm | - | - | - |
* Rain latest hour (hover to see other rain measurements)
** Current wind speed in m/s (hover to see current wind gust speed)